Content
SEND FEEDBACK

Daily
Averages
Monthly
Summary
United States of America

LOWELL, MICHIGAN


Home > North America > United States > Michigan
Elevation: 660 feet     Latitude: 42 58N     Longitude: 085 21W

WEATHER
 
SELECT A DAY
Number of Records: 208,954;   Date Range: 1/1/95 - 7/23/14
 
SHARE

PRINT THIS DATA

[ ← Previous Day ]
WEATHER ALMANAC - JANUARY 3, 2013
[ Next Day → ]
[ °C ]   °F
Weather ElementAverageHighLow
Temperature26.3 °F30.2 °F (12:21 pm)19.4 °F (2:53 am)
Dewpoint19.8 °F24.8 °F (12:21 pm)10.4 °F (2:53 am)
Humidity76.4 %88 % (10:53 am)68 % (2:53 am)
Barometer30.11 in30.19 in (7:53 pm)30.03 in (6:42 am)
Wind Speed10.3 mph16.1 mph (2:53 pm)
Wind Gust23 mph (1:16 pm)
Weather ElementAverage
Visibility5.8 mi
Wind DirectionWSW (236 °)

Weather ElementTotal
Precipitation0.03 in
Heating Degree Days40.2 (Base 65)
Averaged from 30 records on January 3, 2013
WEATHER CONDITIONS BREAKOUT
WIND DIRECTION BREAKOUT
WEATHER BY HOUR - JANUARY 3, 2013
[ °C ]   °F
Local TimeTemperatureDewpointHumidityBarometerVisibilityWind DirectionWind SpeedGust SpeedPrecipitationEventsConditions
12:53 AM19.9 °F12.0 °F71 %30.13 in10.0 miSouth (180°)10.4 mphOvercast
1:53 AM19.9 °F12.0 °F71 %30.12 in10.0 miSouth (180°)8.1 mphOvercast
2:53 AM19.4 °F10.4 °F68 %30.08 in10.0 miSouth (180°)10.4 mphOvercast
3:53 AM19.9 °F12.0 °F71 %30.10 in3.0 miSouth (180°)9.2 mph0.00 inSnowLight Snow
4:53 AM21.0 °F12.0 °F68 %30.08 in10.0 miSouth (180°)8.1 mph0.00 inOvercast
5:53 AM21.0 °F14.0 °F74 %30.07 in4.0 miSouth (190°)8.1 mph0.00 inSnowLight Snow
6:42 AM21.2 °F15.8 °F80 %30.03 in9.0 miSSW (200°)12.7 mph0.00 inOvercast
6:53 AM21.9 °F15.1 °F75 %30.06 in9.0 miSSW (200°)6.9 mph0.00 inSnowLight Snow
7:53 AM24.1 °F18.0 °F77 %30.06 in7.0 miSSW (210°)10.4 mph0.00 inSnowLight Snow
8:53 AM24.1 °F18.0 °F77 %30.07 in6.0 miSSW (200°)9.2 mph0.00 inSnowLight Snow
9:33 AM24.8 °F19.4 °F80 %30.05 in2.5 miSSW (210°)8.1 mph0.00 inSnowLight Snow
9:45 AM24.8 °F19.4 °F80 %30.05 in1.5 miSSW (210°)8.1 mph0.00 inSnowLight Snow
9:53 AM25.0 °F19.9 °F81 %30.09 in1.5 miSSW (210°)10.4 mph0.01 inSnowLight Snow
10:53 AM26.1 °F23.0 °F88 %30.11 in1.8 miWSW (240°)8.1 mph0.01 inSnowLight Snow
11:53 AM28.9 °F24.1 °F82 %30.10 in1.8 miWest (270°)8.1 mph0.01 inSnowLight Snow
12:21 PM30.2 °F24.8 °F80 %30.05 in2.5 miWest (260°)12.7 mph0.00 inSnowLight Snow
12:53 PM30.0 °F24.1 °F79 %30.09 in2.5 miWest (280°)12.7 mph21.9 mph0.00 inSnowLight Snow
1:16 PM30.2 °F24.8 °F80 %30.05 in4.0 miWest (280°)15.0 mph23.0 mph0.00 inSnowLight Snow
1:53 PM30.0 °F24.1 °F79 %30.08 in4.0 miWest (270°)15.0 mph0.00 inSnowLight Snow
2:53 PM30.0 °F23.0 °F75 %30.10 in4.0 miWNW (290°)16.1 mph0.00 inSnowLight Snow
3:53 PM30.0 °F23.0 °F75 %30.12 in5.0 miWest (280°)15.0 mph19.6 mph0.00 inSnowLight Snow
4:53 PM28.9 °F23.0 °F78 %30.14 in5.0 miWest (280°)11.5 mph0.00 inSnowLight Snow
5:21 PM28.4 °F23.0 °F80 %30.12 in5.0 miWest (280°)11.5 mph0.00 inSnowLight Snow
5:53 PM30.0 °F23.0 °F75 %30.17 in7.0 miWest (270°)8.1 mph0.00 inOvercast
6:53 PM30.0 °F23.0 °F75 %30.18 in8.0 miWest (260°)8.1 mphOvercast
7:53 PM30.0 °F23.0 °F75 %30.19 in8.0 miWest (260°)5.8 mphOvercast
8:53 PM30.0 °F23.0 °F75 %30.18 in8.0 miWSW (250°)8.1 mphOvercast
9:53 PM30.0 °F23.0 °F75 %30.18 in8.0 miWest (270°)11.5 mphOvercast
10:53 PM30.0 °F21.9 °F72 %30.17 in8.0 miWest (260°)11.5 mphOvercast
11:53 PM30.0 °F23.0 °F75 %30.16 in7.0 miWSW (250°)11.5 mphOvercast
Hourly data recorded from KGRR, located miles away from Lowell, Michigan







STORIES FROM OUR PARTNERS